Location: Borovka
(49.7741°N, 14.5280°E)
Time: 14:17:56
(UTC+00:00)

ESTCUBE 1 - Pass Details

Date: 15 March 2026
Orbit: 620 x 631 km, 97.7° (Epoch: 18 April)

Event Time Altitude Azimuth Distance (km) Brightness Sun altitude
Exits shadow 20:21:22 36° 279° (W) 1,009 ? -30.1°
Drops below altitude 10° 20:24:57 10° 331° (NNW) 2,017 ? -30.6°
Sets 20:27:18 0° 340° (NNW) 2,932 ? -30.9°
